Track LEMUR 2 LYNSEY-SYMO now! 10-day predictions LEMUR 2 LYNSEY-SYMO is classified as:
1 42779U 17036Q 22135.87343491 .00028059 00000-0 90895-3 0 9996 2 42779 97.2090 183.1186 0011101 78.9455 281.3035 15.31918425272257